Location: Home
(42.5358°N, 72.7383°W)
Time: 12:01:18
(UTC-05:00)

Explorer 7 - Pass Details

Date: 29 November 2021
Orbit: 483 x 674 km, 50.3° (Epoch: 26 January)

Event Time Altitude Azimuth Distance (km) Brightness Sun altitude
Rises 08:02:07 0° 252° (WSW) 2,746 10.1 8.7°
Reaches altitude 10° 08:04:28 10° 257° (WSW) 1,818 9.2 9.0°
Maximum altitude 08:08:30 53° 335° (NNW) 655 7.0 9.6°
Drops below altitude 10° 08:12:20 10° 53° (NE) 1,726 9.5 10.1°
Sets 08:14:31 0° 59° (ENE) 2,591 10.5 10.4°
